Change the Weather History Date:

Friday, October 12, 2012

  Actual Average (KN60) Record (KN60)
Temperature  
Mean Temperature 46 °F -  
Max Temperature 60 °F 55 °F 75 °F (1996)
Min Temperature 32 °F 32 °F 21 °F (2006)
Degree Days  
Heating Degree Days 19    
Moisture  
Dew Point 27 °F    
Average Humidity 56    
Maximum Humidity 80    
Minimum Humidity 31    
Precipitation  
Precipitation 0.00 in - - ()
Sea Level Pressure  
Sea Level Pressure 29.96 in    
Wind  
Wind Speed 14 mph (South)    
Max Wind Speed 30 mph    
Max Gust Speed 40 mph    
Visibility 10 miles    
Events      
Averages and records for this station are not official NWS values.
T = Trace of Precipitation, MM = Missing Value Source: NWS Daily Summary

Daily Weather History Graph

Daily Weather History Graph

Search for Another Location

Airport or City:

Trip Planner

Search our weather history database for the weather conditions in past years. The results will help you decide how hot, cold, wet, or windy it might be!

Date:

Astronomy

Oct. 12, 2012 Rise Set
Actual Time 8:01 AM CDT 7:03 PM CDT
Civil Twilight 7:30 AM CDT 7:33 PM CDT
Nautical Twilight 6:55 AM CDT 8:09 PM CDT
Astronomical Twilight 6:19 AM CDT 8:44 PM CDT
Moon 4:35 AM CDT (10/12) 5:22 PM CDT (10/12)
Length of Visible Light 12h 03m
Length of Day
11h 02m
Waning Crescent, 10% of the Moon is Illuminated
Oct 12
Waning Crescent
Oct 15
New
Oct 21
First Quarter
Oct 29
Full
Nov 6
Last Quarter

Hourly Weather History & Observations

Time (CDT) Temp. Windchill Dew Point Humidity Pressure Visibility Wind Dir Wind Speed Gust Speed Precip Events Conditions
12:15 AM 32.0 °F 23.0 °F 24.8 °F 75% 30.29 in 10.0 mi SSE 11.5 mph - N/A   Overcast
12:35 AM 32.0 °F 23.0 °F 24.8 °F 75% 30.29 in 10.0 mi SSE 11.5 mph - N/A   Overcast
12:55 AM 33.8 °F 25.3 °F 26.6 °F 75% 30.28 in 10.0 mi SSE 11.5 mph 17.3 mph N/A   Overcast
1:15 AM 33.8 °F 25.8 °F 24.8 °F 70% 30.28 in 10.0 mi SSE 10.4 mph - N/A   Overcast
1:35 AM 35.6 °F 27.1 °F 24.8 °F 65% 30.27 in 10.0 mi SSE 12.7 mph 19.6 mph N/A   Overcast
1:55 AM 35.6 °F 26.2 °F 24.8 °F 65% 30.26 in 10.0 mi SSE 15.0 mph 18.4 mph N/A   Overcast
2:15 AM 35.6 °F 26.6 °F 24.8 °F 65% 30.25 in 10.0 mi SSE 13.8 mph 19.6 mph N/A   Overcast
2:35 AM 35.6 °F 26.2 °F 24.8 °F 65% 30.24 in 10.0 mi SSE 15.0 mph 19.6 mph N/A   Overcast
2:55 AM 35.6 °F 25.9 °F 24.8 °F 65% 30.22 in 10.0 mi South 16.1 mph 21.9 mph N/A   Overcast
3:15 AM 35.6 °F 24.8 °F 23.0 °F 60% 30.21 in 10.0 mi SSE 19.6 mph 24.2 mph N/A   Overcast
3:35 AM 35.6 °F 24.5 °F 23.0 °F 60% 30.19 in 10.0 mi South 20.7 mph 25.3 mph N/A   Overcast
3:55 AM 33.8 °F 22.8 °F 23.0 °F 65% 30.18 in 10.0 mi South 18.4 mph 26.5 mph N/A   Mostly Cloudy
4:15 AM 33.8 °F 22.8 °F 23.0 °F 65% 30.16 in 10.0 mi South 18.4 mph 24.2 mph N/A   Mostly Cloudy
4:35 AM 33.8 °F 24.8 °F 23.0 °F 65% 30.17 in 10.0 mi South 12.7 mph 18.4 mph N/A   Mostly Cloudy
4:55 AM 32.0 °F 24.8 °F 23.0 °F 69% 30.16 in 10.0 mi South 8.1 mph - N/A   Mostly Cloudy
5:15 AM 32.0 °F 24.2 °F 23.0 °F 69% 30.15 in 10.0 mi South 9.2 mph - N/A   Partly Cloudy
5:35 AM 32.0 °F 24.2 °F 23.0 °F 69% 30.15 in 10.0 mi South 9.2 mph - N/A   Clear
5:55 AM 32.0 °F 25.6 °F 24.8 °F 75% 30.14 in 10.0 mi South 6.9 mph - N/A   Clear
6:15 AM 32.0 °F 23.0 °F 24.8 °F 75% 30.12 in 10.0 mi South 11.5 mph 18.4 mph N/A   Clear
6:35 AM 32.0 °F 26.4 °F 24.8 °F 75% 30.12 in 10.0 mi South 5.8 mph - N/A   Clear
6:55 AM 32.0 °F 23.6 °F 24.8 °F 75% 30.11 in 10.0 mi South 10.4 mph - N/A   Clear
7:15 AM 32.0 °F 23.6 °F 24.8 °F 75% 30.10 in 10.0 mi South 10.4 mph 17.3 mph N/A   Clear
7:35 AM 32.0 °F 22.1 °F 24.8 °F 75% 30.09 in 10.0 mi South 13.8 mph 19.6 mph N/A   Clear
7:55 AM 32.0 °F 22.5 °F 24.8 °F 75% 30.08 in 10.0 mi South 12.7 mph 23.0 mph N/A   Clear
8:15 AM 32.0 °F 22.5 °F 24.8 °F 75% 30.08 in 10.0 mi South 12.7 mph 18.4 mph N/A   Clear
8:35 AM 32.0 °F 22.5 °F 26.6 °F 80% 30.07 in 10.0 mi South 12.7 mph 21.9 mph N/A   Clear
8:55 AM 33.8 °F 26.4 °F 26.6 °F 75% 30.06 in 10.0 mi South 9.2 mph 19.6 mph N/A   Clear
9:15 AM 35.6 °F 29.9 °F 26.6 °F 70% 30.06 in 10.0 mi South 6.9 mph - N/A   Clear
9:35 AM 37.4 °F 27.8 °F 26.6 °F 65% 30.04 in 10.0 mi South 17.3 mph 23.0 mph N/A   Clear
9:55 AM 39.2 °F 29.6 °F 26.6 °F 61% 30.02 in 10.0 mi South 19.6 mph 25.3 mph N/A   Clear
10:15 AM 39.2 °F 28.7 °F 26.6 °F 61% 30.00 in 10.0 mi South 23.0 mph 31.1 mph N/A   Clear
10:35 AM 41.0 °F 29.8 °F 26.6 °F 57% 29.98 in 10.0 mi South 29.9 mph 38.0 mph N/A   Clear
10:55 AM 44.6 °F 35.7 °F 26.6 °F 49% 29.97 in 10.0 mi South 24.2 mph 40.3 mph N/A   Clear
11:15 AM 44.6 °F 34.9 °F 26.6 °F 49% 29.96 in 10.0 mi South 28.8 mph 34.5 mph N/A   Clear
11:35 AM 46.4 °F 38.3 °F 28.4 °F 50% 29.96 in 10.0 mi South 23.0 mph 32.2 mph N/A   Clear
12:15 PM 48.2 °F - 26.6 °F 43% 29.94 in 10.0 mi South 23.0 mph 32.2 mph N/A   Clear
12:35 PM 48.2 °F - 26.6 °F 43% 29.93 in 10.0 mi South 24.2 mph 32.2 mph N/A   Clear
12:55 PM 50.0 °F - 26.6 °F 40% 29.91 in 10.0 mi South 23.0 mph 33.4 mph N/A   Clear
1:35 PM 53.6 °F - 28.4 °F 38% 29.88 in 10.0 mi SSW 20.7 mph 27.6 mph N/A   Clear
2:15 PM 55.4 °F - 28.4 °F 36% 29.84 in 10.0 mi South 20.7 mph 31.1 mph N/A   Clear
2:35 PM 55.4 °F - 28.4 °F 36% 29.83 in 10.0 mi South 23.0 mph 29.9 mph N/A   Clear
2:55 PM 55.4 °F - 28.4 °F 36% 29.82 in 10.0 mi South 23.0 mph 27.6 mph N/A   Clear
3:35 PM 57.2 °F - 28.4 °F 33% 29.79 in 10.0 mi South 24.2 mph 28.8 mph N/A   Clear
3:55 PM 59.0 °F - 30.2 °F 34% 29.79 in 10.0 mi South 18.4 mph 27.6 mph N/A   Clear
4:15 PM 59.0 °F - 30.2 °F 34% 29.77 in 10.0 mi South 18.4 mph 24.2 mph N/A   Clear
4:35 PM 59.0 °F - 30.2 °F 34% 29.77 in 10.0 mi SSW 17.3 mph 25.3 mph N/A   Clear
5:15 PM 60.8 °F - 30.2 °F 31% 29.75 in 10.0 mi South 17.3 mph 24.2 mph N/A   Clear
5:35 PM 59.0 °F - 30.2 °F 34% 29.74 in 10.0 mi South 17.3 mph 21.9 mph N/A   Clear
6:15 PM 59.0 °F - 32.0 °F 36% 29.72 in 10.0 mi South 11.5 mph - N/A   Clear
6:35 PM 57.2 °F - 30.2 °F 36% 29.72 in 10.0 mi South 10.4 mph - N/A   Clear
6:55 PM 55.4 °F - 32.0 °F 41% 29.72 in 10.0 mi South 6.9 mph - N/A   Clear
7:15 PM 51.8 °F - 30.2 °F 44% 29.71 in 10.0 mi SSE 6.9 mph - N/A   Clear
7:55 PM 44.6 °F 43.1 °F 30.2 °F 57% 29.71 in 9.0 mi NE 3.5 mph - N/A   Clear
8:15 PM 44.6 °F 40.7 °F 30.2 °F 57% 29.70 in 10.0 mi South 6.9 mph - N/A   Clear
8:35 PM 50.0 °F - 32.0 °F 50% 29.70 in 10.0 mi South 11.5 mph - N/A   Clear
9:15 PM 50.0 °F - 32.0 °F 50% 29.68 in 10.0 mi South 13.8 mph - N/A   Clear
9:35 PM 50.0 °F - 30.2 °F 47% 29.67 in 10.0 mi South 17.3 mph - N/A   Clear
9:55 PM 50.0 °F - 30.2 °F 47% 29.67 in 10.0 mi South 17.3 mph 21.9 mph N/A   Clear
10:15 PM 50.0 °F - 30.2 °F 47% 29.66 in 10.0 mi South 20.7 mph 24.2 mph N/A   Clear
10:35 PM 50.0 °F - 30.2 °F 47% 29.66 in 10.0 mi South 18.4 mph - N/A   Clear
10:55 PM 48.2 °F - 30.2 °F 50% 29.67 in 10.0 mi WSW 8.1 mph - N/A   Clear
11:15 PM 46.4 °F 42.4 °F 30.2 °F 53% 29.67 in 10.0 mi SSW 8.1 mph - N/A   Clear
11:35 PM 48.2 °F - 30.2 °F 50% 29.66 in 10.0 mi SSW 9.2 mph - N/A   Clear
11:55 PM 46.4 °F 43.5 °F 30.2 °F 53% 29.66 in 10.0 mi West 5.8 mph - N/A   Clear